SENTINEL-2B

Last updated on Sat Aug 15 2026 00:02:46 GMT+0000 (Coordinated Universal Time)

1 42063U 17013A 26226.59909328 .00000419 00000+0 17658-3 0 9993 2 42063 98.5668 300.5398 0001252 89.4877 270.6449 14.30823149492990
UTC large
Height (km)
Speed (km/s)
/
Latitude / Longitude
Inclination (degrees)
Orbital Period (minutes)
Azimuth
Elevation
Range (km)
Doppler Factor

Next 0 passes for location: London (51.5072 / 0.1276)

No passes found over London.
SENTINEL-2B